TIME,DELAY(SENSOR),PRES,T(CTD),SAL,OXYGEN,RAWTEMP,T(OPTODE),TCPHASE,FLUOR,BETA(BETA700),BETA(BETA412),BETA(BETA440),CDOM,C(CSC),ED(ED411.90),ED(ED443.80),ED(ED489.40),ED(ED554.70),LU(LU412.20),LU(LU443.80),LU(LU489.40),LU(LU555.00),COMP,TILTX,TILTX(TILTY),CHECK
1379171239,5804,495.0199890136719000,17.8320999145507800,36.5068016052246100,206.2156982421875000,160.9035949707031200,17.8275604248046880,32.3108291625976560,115,4130,48,50,47,9461,2146958299,2147512466,2147271168,2147449526,2147081609,2146950692,2147655524,2147127533,1910,-1,8,53255
1379171351,5808,483.8800048828125000,17.8801002502441400,36.5163002014160160,208.1849060058593800,159.0937957763672000,17.8822002410888670,32.1755104064941400,115,4130,48,50,46,9456,2146957888,2147510802,2147273508,2147448000,2147083867,2146957568,2147655094,2147129600,964,-1,8,21426
1379171456,5806,473.2799987792969000,17.9286003112792970,36.5211982727050800,208.9888000488281200,157.6596069335937500,17.9255008697509770,32.1111106872558600,115,4130,47,50,48,9455,2146960758,2147515894,2147272950,2147450523,2147080868,2146958025,2147654308,2147124809,3461,-1,8,65064
1379171571,5808,461.6700134277344000,18.0009994506835940,36.5317001342773440,209.3309936523437500,155.2682037353515600,17.9977092742919920,32.0593414306640600,114,4130,48,50,46,9459,2146961344,2147513298,2147272658,2147449920,2147082742,2146956580,2147651227,2147120228,2640,-1,8,27436
1379171674,5807,451.3500061035156000,18.0321998596191400,36.5350990295410160,210.4624938964843800,154.1902008056640600,18.0302696228027340,31.9818191528320300,116,4130,48,50,46,9457,2146964242,2147511341,2147269458,2147447094,2147078244,2146956553,2147649380,2147126116,1731,-1,8,14685
1379171816,5805,438.7200012207031000,18.0732994079589840,36.5385017395019500,211.0330047607422000,152.8939971923828000,18.0694198608398440,31.9328708648681640,117,4130,47,50,47,9459,2146959424,2147512722,2147271158,2147446902,2147078272,2146959332,2147649444,2147130797,1142,-2,8,51936
1379171969,5808,427.8299865722656000,18.1147003173828120,36.5410003662109400,210.1419982910156200,151.5899047851562500,18.1088104248046880,31.9639701843261720,116,4130,48,50,47,9459,2146960914,2147514733,2147271533,2147448649,2147078500,2146958006,2147653284,2147126080,3528,-1,8,54326
1379172123,5806,416.0799865722656000,18.1781005859375000,36.5461006164550800,212.2577056884765600,149.4698944091797000,18.1728591918945300,31.8194999694824220,116,4130,48,50,47,9459,2146956690,2147513792,2147273682,2147449453,2147082441,2146954697,2147645174,2147124534,2473,-1,8,4292
1379172246,5804,405.1099853515625000,18.2292003631591800,36.5499992370605500,214.7189941406250000,147.7642974853515600,18.2243804931640620,31.6631698608398440,116,4130,47,51,47,9460,2146958592,2147514450,2147270500,2147450038,2147081792,2146949988,2147649517,2147126080,1932,-1,8,48149
1379172375,5802,393.8200073242187500,18.2595996856689450,36.5504989624023440,217.5162963867187500,146.6790924072265600,18.2571697235107420,31.4997406005859380,116,4130,48,50,47,9460,2146955803,2147515666,2147270464,2147449170,2147080320,2146954898,2147653860,2147127213,1290,-1,8,60976
1379172514,5807,381.9899902343750000,18.2919998168945300,36.5494003295898440,219.1905059814453000,145.7024993896484400,18.2866897583007800,31.3985404968261720,116,4130,47,50,46,9461,2146960155,2147515428,2147269165,2147447789,2147079533,2146954221,2147652525,2147127469,797,-1,8,20384
1379172641,5807,371.2999877929687500,18.3197994232177730,36.5499000549316400,221.4841003417968800,144.7319030761718800,18.3160190582275400,31.2663307189941400,116,4130,48,50,47,9464,2146962459,2147515757,2147271716,2147449472,2147077869,2146955894,2147654857,2147125193,187,-1,8,64334
1379172770,5805,360.4100036621094000,18.3488998413085940,36.5503005981445300,222.5798034667968800,143.7839965820312500,18.3446693420410160,31.1973094940185550,116,4130,49,50,46,9461,2146963364,2147515200,2147270390,2147447341,2147079369,2146951707,2147653915,2147124077,3031,-2,8,10110
1379172897,5808,349.3900146484375000,18.3777008056640620,36.5508995056152340,225.7574005126953000,142.8226928710937500,18.3737201690673830,31.0228996276855470,115,4130,48,50,47,9462,2146961234,2147514157,2147273261,2147449728,2147076077,2146956845,2147654134,2147123721,1847,-1,8,64321
1379173026,5805,337.9700012207031000,18.4081001281738280,36.5536994934082000,226.2561035156250000,141.8572998046875000,18.4029006958007800,30.9849395751953120,115,4130,48,50,46,9463,2146958966,2147512768,2147271506,2147448246,2147070820,2146959076,2147655369,2147125769,1361,-1,8,41335
1379173141,5807,327.6700134277344000,18.4251995086669920,36.5532989501953100,225.4322052001953000,141.1817932128906200,18.4233207702636720,31.0172996520996100,115,4130,49,50,46,9463,2146957979,2147513828,2147271186,2147447670,2147078729,2146959533,2147656036,2147125074,856,-1,8,11949
1379173268,5804,316.2099914550781000,18.4473991394042970,36.5545005798339840,225.8482971191406200,140.4884033203125000,18.4442806243896500,30.9870700836181640,115,4130,47,50,47,9462,2146959451,2147514944,2147272000,2147446784,2147074157,2146964534,2147653302,2147129956,3419,-1,8,65521
1379173385,5806,305.5700073242187500,18.4965991973876950,36.5592994689941400,224.9703063964843800,138.9474029541015600,18.4908695220947270,31.0106697082519530,115,4130,47,50,46,9458,2146960987,2147513216,2147271433,2147447451,2147079725,2146959241,2147659556,2147126208,3344,-1,8,26381
1379173512,5806,294.2399902343750000,18.5911006927490230,36.5727996826171900,222.5968017578125000,135.4960021972656200,18.5952301025390620,31.0852108001709000,117,4130,47,50,47,9457,2146962514,2147514121,2147270838,2147447104,2147076736,2146961353,2147660370,2147127552,2989,-1,8,32232
1379173641,5803,283.2500000000000000,18.6401004791259770,36.5676994323730500,220.5841979980468800,134.1670074462890600,18.6354293823242200,31.1706199645996100,116,4130,48,50,46,9454,2146958546,2147513280,2147271552,2147449874,2147078866,2146963538,2147662829,2147130011,2384,-1,8,61471
1379173768,5806,273.0100097656250000,18.7155990600585940,36.5773010253906250,217.2561035156250000,131.6179046630859400,18.7125301361084000,31.3101005554199220,115,4130,48,50,47,9456,2146958985,2147513225,2147272521,2147442267,2147077942,2146962724,2147670418,2147130971,2102,-1,8,23580
1379173919,5805,261.4200134277344000,18.7527999877929700,36.5694007873535160,217.8737945556640600,130.4562988281250000,18.7476692199707030,31.2621402740478500,115,4130,48,50,47,9454,2146961426,2147515858,2147269440,2147444992,2147076507,2146963355,2147678683,2147128868,2576,-1,8,32254
1379174050,5803,250.3899993896484400,18.8665008544921880,36.5786018371582000,218.7568969726562500,125.6283035278320300,18.8937702178955080,31.1508502960205080,115,4130,48,50,47,9453,2146961764,2147510345,2147271277,2147447835,2147071140,2146961033,2147654345,2147125458,2394,-1,8,33112
1379174163,5802,239.5099945068359400,18.9778003692626950,36.5840988159179700,215.8571929931640600,121.5325012207031200,19.0177497863769530,31.2484092712402340,113,4130,47,49,46,9452,2146958573,2147513709,2147272009,2147446006,2147076498,2146961691,2147655798,2147130486,1331,-1,8,38861
1379174280,5803,228.3999938964843800,19.2012004852294920,36.6114006042480500,211.3665008544922000,115.5814971923828100,19.1979808807373050,31.4086399078369140,115,4130,47,50,47,9455,2146958656,2147514294,2147271040,2147444306,2147079213,2146962624,2147656411,2147129216,1389,-1,8,10896
1379174407,5807,216.7100067138672000,19.3257999420166000,36.5976982116699200,214.8070068359375000,111.4673004150390600,19.3226509094238280,31.1692008972167970,114,4130,49,50,45,9453,2146961609,2147511917,2147266514,2147440173,2147077677,2146966116,2147663762,2147127606,842,-1,8,47837
1379174522,5808,205.7100067138672000,19.4486007690429700,36.6054000854492200,216.0812988281250000,107.4486007690429700,19.4444599151611330,31.0477790832519530,115,4130,48,50,46,9455,2146962514,2147513270,2147269165,2147445028,2147075364,2146975305,2147677494,2147126555,531,-2,8,40904
1379174614,5807,197.0599975585937500,19.5638999938964840,36.6180992126464840,213.5556945800781200,103.6498031616211000,19.5596599578857420,31.1311893463134770,116,4130,47,50,46,9456,2146961206,2147513170,2147272256,2147441709,2147081316,2146983661,2147691648,2147126756,3101,-1,8,30581
1379174669,5808,192.0399932861328000,19.6037006378173830,36.6208992004394500,212.0619049072265600,101.9190979003906200,19.6121501922607420,31.1879100799560550,115,4130,48,51,47,9453,2146959030,2147513444,2147271140,2147443556,2147074907,2146988699,2147711113,2147131776,2952,-1,9,34272
1379174724,5806,187.1300048828125000,19.6452999114990230,36.6156005859375000,213.2400970458984400,100.9216995239257800,19.6424102783203120,31.1115608215332030,114,4130,47,50,47,9451,2146958884,2147515986,2147274468,2147442212,2147086445,2147025197,2147783424,2147134738,2835,-1,8,20236
1379174779,5809,182.2899932861328000,19.7175998687744140,36.6128005981445300,214.7700958251953000,98.6589431762695300,19.7110691070556640,31.0000991821289060,116,4130,48,50,47,9446,2146960018,2147513088,2147271360,2147438500,2147083748,2147012827,2147757604,2147133778,2753,-1,8,37197
1379174834,5806,177.5899963378906200,19.8278999328613280,36.6110992431640600,216.2512054443359400,94.4576187133789000,19.8385906219482420,30.8662204742431640,115,4130,47,50,47,9445,2146957193,2147515099,2147270546,2147439451,2147080438,2147005248,2147732699,2147133476,3237,-2,8,58999
1379174920,5806,171.1900024414062500,19.9571990966796880,36.6123008728027340,217.8036956787109400,90.6303176879882800,19.9548091888427730,30.7345008850097660,115,4130,48,50,46,9439,2146960786,2147515044,2147269869,2147440969,2147085394,2147007030,2147737828,2147130770,3100,-2,8,62374
1379174987,5806,167.0700073242187500,20.0806999206542970,36.6296005249023440,215.9512023925781200,86.8236770629882800,20.0704593658447270,30.7810707092285160,116,4130,48,50,46,9444,2146960923,2147516123,2147269878,2147438400,2147085494,2147014902,2147738166,2147133677,3318,-1,8,64967
1379175054,5808,163.0700073242187500,20.0734996795654300,36.6227989196777340,216.8921051025390600,86.7781372070312500,20.0718402862548830,30.7313098907470700,116,4130,47,50,48,9444,2146960402,2147512923,2147271058,2147438016,2147089097,2147022409,2147746816,2147132406,353,-1,8,16337
1379175121,5810,159.2299957275390600,20.2341995239257800,36.6186981201171900,215.7738952636718800,81.5726013183593800,20.2300701141357420,30.7207508087158200,116,4130,47,50,47,9439,2146957138,2147515428,2147271113,2147438034,2147092096,2147028836,2147755117,2147132827,357,-2,8,39804
1379175229,5808,154.3600006103515600,20.4146003723144530,36.6320991516113300,212.6253051757812500,76.0265808105468800,20.3987693786621100,30.8135795593261720,117,4130,48,50,46,9433,2146958921,2147518418,2147269412,2147439433,2147095040,2147036681,2147769865,2147135808,3384,-1,8,42004
1379175332,5807,151.1999969482422000,20.5608997344970700,36.6388015747070300,207.9170989990234400,71.1444015502929700,20.5473594665527340,31.0030593872070300,117,4130,48,50,46,9436,2146960027,2147516580,2147269376,2147439094,2147098285,2147058002,2147791698,2147135405,3243,-1,9,57614
1379175483,5805,147.1300048828125000,20.6450996398925780,36.6124992370605500,204.3742980957031200,68.2703933715820300,20.6348800659179700,31.1598701477050780,117,4130,49,50,47,9431,2146956114,2147521188,2147282349,2147436818,2147144694,2147258121,2148173787,2147163273,2175,-2,8,20299
1379175612,5805,142.9799957275390600,20.7681007385253900,36.6071014404296900,211.9971008300781200,64.1198196411132800,20.7613296508789060,30.6903495788574220,117,4130,47,50,47,9429,2146962249,2147531766,2147305965,2147436242,2147227346,2147611977,2148810441,2147202102,2476,-1,8,2189
1379175715,5802,139.0800018310547000,20.9094009399414060,36.6054000854492200,217.9960937500000000,59.7628288269043000,20.8941497802734380,30.3194103240966800,117,4130,48,50,47,9430,2146963501,2147532544,2147308068,2147436214,2147260544,2147713746,2148959954,2147215241,2922,-1,9,2276
1379175872,5805,133.4799957275390600,21.1529998779296880,36.6021995544433600,222.4183044433593800,52.0974082946777340,21.1280193328857420,29.9954395294189450,117,4130,48,50,47,9426,2146968283,2147540434,2147321618,2147436233,2147329517,2147901558,2149249590,2147237805,3500,-1,8,37691
1379175963,5806,129.3099975585937500,21.3293991088867200,36.6026000976562500,224.4277038574218800,45.9689788818359400,21.3151798248291000,29.8160305023193360,115,4130,47,50,46,9420,2146967616,2147544996,2147326354,2147434971,2147394669,2148068845,2149496173,2147257170,347,-2,8,27965
1379176054,5807,125.6500015258789000,21.5128993988037100,36.6008987426757800,226.2207031250000000,40.0493316650390600,21.4961299896240230,29.6516990661621100,116,4130,49,50,48,9417,2146971584,2147550409,2147337645,2147433947,2147463945,2148230912,2149734820,2147273609,526,-1,9,23929
1379176159,5807,122.0100021362304700,21.6851997375488280,36.5934982299804700,232.7471008300781200,34.5940895080566400,21.6630306243896500,29.2686290740966800,117,4130,48,49,46,9419,2146972672,2147554605,2147345005,2147434486,2147549449,2148435300,2150017417,2147301668,1466,-2,8,59625
1379176298,5804,118.2900009155273400,21.7992000579834000,36.5956001281738300,236.6472930908203000,30.7511501312255860,21.7806892395019530,29.0375099182128900,116,4130,47,50,47,9420,2146981595,2147563657,2147357302,2147433133,2147672146,2148707840,2150398089,2147331785,1340,-1,9,40896
1379176575,5801,114.2900009155273400,22.2660007476806640,36.5808982849121100,244.2221984863281200,15.4221897125244140,22.2507591247558600,28.5017890930175780,117,4130,48,50,46,9412,2146989714,2147580955,2147379629,2147431049,2147916534,2149201389,2151008795,2147384603,1364,-1,8,16228
1379176779,5804,109.0500030517578100,22.6308994293212900,36.5727996826171900,250.6566009521484400,4.0031428337097170,22.6017494201660160,28.0791206359863280,116,4130,48,50,46,9401,2146980306,2147562422,2147342893,2147429814,2147767771,2148575588,2149860754,2147303972,1563,-2,8,63163
1379176858,5808,105.6999969482421900,22.9144001007080080,36.5774993896484400,252.5854034423828000,-5.2381930351257320,22.8863296508789060,27.8825492858886720,116,4130,48,50,47,9400,2147011602,2147610112,2147430253,2147434715,2148477997,2150229778,2152211062,2147497545,1005,-2,9,39140
1379176973,5805,102.3600006103515600,23.0529003143310550,36.5947990417480500,258.7955017089844000,-10.1576404571533200,23.0380306243896500,27.5629692077636720,116,4130,47,50,46,9405,2146992155,2147569526,2147348918,2147425554,2147985307,2148928027,2150200978,2147336749,2519,-1,9,55373
1379177106,5807,98.9899978637695300,23.5401992797851560,36.5681991577148440,263.2868041992187500,-25.2792797088623050,23.5052394866943360,27.1960601806640620,117,4130,48,50,47,9394,2147026386,2147640320,2147448557,2147433417,2148991524,2151032137,2152972214,2147566089,2879,-2,8,37961
1379177197,5808,97.8799972534179700,23.6732997894287100,36.5419006347656250,270.9815063476562500,-29.1600799560546880,23.6253795623779300,26.8454399108886720,116,4130,48,50,47,9388,2147036059,2147658185,2147476068,2147434870,2149290148,2151609069,2153682550,2147632374,3114,-1,8,64092
1379177437,5806,95.0100021362304700,23.8920993804931640,36.5223999023437500,250.2920074462890600,-37.2974700927734400,23.8775997161865230,27.5859794616699220,115,4130,47,50,46,9378,2146989787,2147571172,2147339492,2147421074,2148041170,2148775222,2149794249,2147317293,3448,-2,9,47899
1379177504,5804,92.9000015258789000,23.9538002014160160,36.5219001770019500,243.6887969970703000,-39.7126884460449200,23.9525508880615230,27.8412094116210940,116,4130,47,50,48,9380,2146995721,2147578578,2147352685,2147426358,2148224576,2149087561,2150161654,2147352941,3184,-1,9,48761
1379177571,5808,91.3099975585937500,24.1072998046875000,36.5228996276855500,238.8639068603515600,-44.2980499267578100,24.0949401855468750,27.9982490539550780,116,4130,48,49,48,9377,2147007049,2147593124,2147372562,2147424320,2148479094,2149549641,2150757019,2147412845,2834,-2,9,1486
1379177704,5802,88.9800033569336000,24.4001998901367200,36.5060005187988300,235.0879974365234400,-54.0849189758300800,24.3993492126464840,28.0477905273437500,116,4130,47,50,47,9363,2147004050,2147583332,2147356324,2147419510,2148416923,2149271021,2150264539,2147379218,2059,-1,9,56770
1379177759,5807,87.0299987792968800,24.6592006683349600,36.4896011352539060,233.1802978515625000,-60.9291305541992200,24.6126308441162100,28.0504093170166000,117,4130,49,50,47,9362,2147007808,2147586953,2147357531,2147422610,2148519131,2149372315,2150316955,2147387072,1854,-2,9,55663
1379177826,5809,85.1200027465820300,24.7886009216308600,36.4856986999511700,233.6295013427734400,-64.5155715942382800,24.7245292663574220,27.9853401184082030,116,4130,48,50,47,9369,2147012809,2147590838,2147358244,2147421184,2148585737,2149425353,2150325248,2147391634,1977,-1,8,14830
1379177929,5806,83.9400024414062500,24.8092002868652340,36.4884986877441400,234.7301025390625000,-66.4095535278320300,24.7836608886718750,27.9118099212646500,117,4130,46,50,46,9369,2147009892,2147585014,2147355245,2147418962,2148540096,2149326107,2150197101,2147379190,2424,-1,9,65362
1379178170,5805,81.1100006103515600,25.1807003021240230,36.4459991455078100,234.1296997070312500,-78.5190963745117200,25.1623497009277340,27.7899494171142580,116,4130,47,50,46,9369,2147018477,2147595821,2147359067,2147416347,2148742326,2149517668,2150273042,2147390345,391,-2,9,23625
1379178237,5807,79.1900024414062500,25.2243995666503900,36.4407997131347660,233.9060058593750000,-79.9270477294921900,25.2064495086669920,27.7825794219970700,116,4130,48,50,46,9370,2147025417,2147602733,2147364105,2147415469,2148903652,2149708589,2150419062,2147407140,448,-1,9,56679
1379178323,5809,76.1900024414062500,25.2572002410888670,36.4383010864257800,234.4552001953125000,-81.6273803710937500,25.2597293853759770,27.7367801666259770,116,4130,48,50,48,9377,2147042203,2147618477,2147381138,2147415250,2149332141,2150238829,2150853677,2147454838,925,-2,9,24785
1379178378,5806,73.8000030517578100,25.3215999603271500,36.4294013977050800,235.7265930175781200,-83.7341766357421900,25.3257808685302730,27.6535396575927730,115,4130,48,50,46,9375,2147059858,2147637833,2147399350,2147419282,2149805046,2150817920,2151319954,2147504905,852,-2,8,28897
1379178433,5808,71.8000030517578100,25.3925991058349600,36.4208984375000000,239.0164947509765600,-85.6314086914062500,25.3852901458740230,27.4834899902343750,115,4130,48,50,46,9373,2147081956,2147664813,2147423680,2147417773,2150375908,2151527341,2151898258,2147566363,561,-2,9,11783
1379178488,5804,70.2399978637695300,25.5177001953125000,36.4095001220703100,244.2303009033203000,-89.6119308471679700,25.5102291107177730,27.2070598602294920,115,4130,48,50,46,9377,2147106468,2147692242,2147447241,2147419062,2151015789,2152308050,2152543387,2147637723,661,-2,8,34215
1379178579,5805,68.2699966430664000,25.7133007049560550,36.3922996520996100,254.5139007568359400,-95.0208587646484400,25.6802101135253900,26.7090091705322270,114,4130,48,51,47,9377,2147152777,2147742747,2147498742,2147422546,2152238345,2153831350,2153824530,2147776064,381,-2,9,16764
1379178665,5804,65.4000015258789000,25.9648990631103500,36.3680000305175800,270.2370910644531000,-103.3442993164062500,25.9422607421875000,25.9872303009033200,114,4130,47,50,47,9377,2147262656,2147860790,2147618523,2147432118,2154967104,2157319104,2156890916,2148114678,86,-1,8,7009
1379178720,5807,62.9500007629394500,26.0732002258300780,36.3703994750976560,307.3539123535156000,-106.8716964721679700,26.0534801483154300,24.6303501129150400,115,4130,48,50,48,9372,2147728731,2148446555,2148262235,2147478281,2166969837,2174318299,2173386806,2149918656,106,-1,8,11242
1379178775,5806,60.9599990844726560,26.1982002258300780,36.3581008911132800,392.2420959472656000,-110.5418014526367200,26.1693096160888670,22.1528396606445300,115,4130,48,50,46,9378,2148238528,2149073426,2148931273,2147528402,2180276937,2192822829,2191102537,2151905993,3457,-1,9,5836
1379178842,5807,59.4300003051757800,26.3131999969482420,36.3498992919921900,513.4893188476562000,-113.8423995971679700,26.2735805511474600,19.4806098937988280,115,4130,49,50,46,9374,2148336502,2149171712,2149065060,2147558180,2183058971,2195722843,2193217152,2152242742,382,-1,9,61668
1379178974,5807,57.1100006103515600,26.4370002746582030,36.3325004577636700,632.2824707031250000,-119.0195999145507800,26.4373207092285160,17.4055805206298830,115,4130,48,51,47,9362,2148323227,2149103277,2148944137,2147552621,2182077668,2192674185,2189192265,2151922779,933,-1,9,6454
1379179029,5804,54.9599990844726560,26.6706008911132800,36.3027000427246100,615.8574218750000000,-125.5416030883789000,26.6439208984375000,17.5924606323242200,116,4130,48,50,46,9366,2148784475,2149608694,2149448228,2147598656,2193797650,2207558381,2202320256,2153556982,1003,-2,9,26029
1379179170,5804,53.2000007629394500,26.9531002044677730,36.2443008422851560,593.6754760742188000,-135.1725006103515600,26.9496994018554700,17.8467292785644530,115,4130,48,49,46,9347,2148859748,2149674112,2149481764,2147597732,2195583323,2208982765,2203100278,2153737234,1123,-2,9,10310
1379179319,5808,51.7000007629394500,27.0240993499755860,36.2289009094238300,571.9359130859375000,-137.6468048095703000,27.0283908843994140,18.1819496154785160,112,4130,48,51,47,9345,2149100955,2149886006,2149652809,2147628882,2200992667,2214858614,2207052141,2154318473,415,-2,9,63602
1379179520,5808,49.8600006103515600,27.0977993011474600,36.2058982849121100,647.4537963867188000,-139.4048004150390600,27.0843391418457030,16.9626502990722660,114,4130,47,50,46,9349,2149224768,2149978029,2149694966,2147635245,2203326939,2216601042,2207432301,2154459565,438,-2,8,43515
1379179899,5806,47.7700004577636700,27.4046001434326170,36.1054992675781250,732.9044799804688000,-149.8721923828125000,27.4180507659912100,15.6523399353027340,115,4130,49,50,46,9361,2148972169,2149589933,2149198848,2147600228,2195591003,2203806235,2194080210,2152876324,795,-2,9,21639
1379179968,5804,45.7500000000000000,27.4087009429931640,36.0976982116699200,654.0169067382812000,-149.9091949462890600,27.4192295074462900,16.7554397583007800,113,4130,47,50,46,9357,2149082258,2149626422,2149127451,2147582957,2197780297,2204228324,2192303670,2152645531,578,-2,9,5097
1379180025,5807,43.8300018310546900,27.4253997802734380,36.0840988159179700,628.2678833007812000,-150.3307952880859400,27.4326896667480470,17.1396503448486330,113,4130,48,50,46,9364,2148943561,2149410752,2148832576,2147537846,2195160621,2199317860,2186786550,2152064685,190,-2,8,33837
1379180082,5809,41.9000015258789060,27.4207000732421880,36.0803985595703100,562.9453125000000000,-150.3130950927734400,27.4321308135986330,18.2015895843505860,112,4130,48,50,46,9364,2148919369,2149323382,2148706130,2147514816,2195078262,2198012123,2184836068,2151750930,3426,-1,8,8055
1379180139,5803,39.6599998474121100,27.4288997650146500,36.0828018188476560,567.2918090820312000,-150.4649047851562500,27.4369697570800780,18.1256198883056640,113,4130,48,50,46,9367,2149990848,2150358820,2149551817,2147583131,2221306441,2227000329,2206790957,2154543762,3389,-2,8,27652
1379180201,5802,36.8100013732910160,27.4263992309570300,36.0826988220214840,608.0034790039062000,-150.4924926757812500,27.4378509521484380,17.4550590515136720,112,4130,48,50,47,9362,2152914102,2153189787,2151925074,2147825737,2298719497,2313066541,2272340891,2164122733,3369,-2,9,59912
1379180246,5806,34.0800018310546900,27.4237995147705080,36.0806999206543000,650.9843139648438000,-150.4347991943359400,27.4360103607177730,16.7949199676513670,111,4130,46,50,48,9366,2151916260,2152089380,2150865289,2147735067,2273695442,2280766555,2244240192,2160683181,3233,-1,8,43112
1379180279,5807,32.0600013732910160,27.4214992523193360,36.0782012939453100,661.0805053710938000,-150.4674987792968800,27.4370594024658200,16.6456298828125000,111,4130,46,50,47,9363,2154631561,2154717741,2153045101,2147963986,2344679515,2359446409,2304020260,2170153444,3071,-1,8,14626